Location: Unspecified
(0.0000°N, 0.0000°E)
Time: 22:10:39
(UTC+00:00)

Courier 1B - All Passes

Search period start: 16 April 2014 00:00
Search period end: 26 April 2014 00:00
Orbit: 963 x 1209 km, 28.3° (Epoch: 16 April)

Date Brightness Start Highest point End Pass type
(mag) Time Alt. Az. Time Alt. Az. Time Alt. Az.
16 Apr - 01:29:45 10° WSW 01:34:40 20° SSW 01:39:49 10° SSE night (unlit)
16 Apr - 07:21:35 10° S 07:24:14 12° SSE 07:26:53 10° SE daylight
16 Apr - 09:12:44 10° SW 09:19:41 34° SSE 09:26:25 10° E daylight
16 Apr - 11:06:27 10° WSW 11:14:13 79° NNW 11:21:34 10° NE daylight
16 Apr - 13:02:55 10° WNW 13:08:39 24° NNW 13:14:10 10° NNE daylight
16 Apr - 20:47:08 10° NNW 20:52:13 24° NNE 20:57:23 10° E visible
16 Apr - 22:39:48 10° WNW 22:46:21 89° NNE 22:53:15 10° ESE night (unlit)
17 Apr - 00:35:08 10° W 00:40:41 27° SSW 00:46:31 10° SSE night (unlit)
17 Apr - 08:19:18 10° SSW 08:25:35 26° SSE 08:31:46 10° E daylight
17 Apr - 10:12:27 10° SW 10:20:18 78° SSE 10:27:48 10° ENE daylight
17 Apr - 12:08:01 10° W 12:14:42 33° NNW 12:21:05 10° NNE daylight
17 Apr - 19:54:16 10° NNW 19:58:21 17° NNE 20:02:28 10° ENE visible
17 Apr - 21:46:15 10° NW 21:52:39 63° NNE 21:59:17 10° ESE visible
17 Apr - 23:40:48 10° W 23:46:47 36° SSW 23:53:05 10° SE night (unlit)
18 Apr - 01:39:35 10° SW 01:41:51 12° SSW 01:44:08 10° S night (unlit)
18 Apr - 07:26:04 10° SSW 07:31:25 20° SSE 07:36:45 10° ESE daylight
18 Apr - 09:18:37 10° SW 09:26:20 58° SSE 09:33:50 10° ENE daylight
18 Apr - 11:13:26 10° W 11:20:46 45° NNW 11:27:46 10° NE daylight
18 Apr - 13:11:59 10° NW 13:15:36 14° NNW 13:19:08 10° N daylight
18 Apr - 19:01:50 10° N 19:04:24 12° NNE 19:06:58 10° NE visible
18 Apr - 20:52:51 10° NW 20:58:57 44° NNE 21:05:10 10° E visible
18 Apr - 22:46:44 10° WNW 22:52:59 49° SSW 22:59:33 10° SE night (unlit)
19 Apr - 00:43:58 10° SW 00:47:42 15° SSW 00:51:32 10° SSE night (unlit)
19 Apr - 06:33:08 10° S 06:37:10 15° SSE 06:41:14 10° SE daylight
19 Apr - 08:24:57 10° SW 08:32:20 43° SSE 08:39:36 10° E daylight
19 Apr - 10:19:05 10° WSW 10:26:50 62° NNW 10:34:17 10° NE daylight
19 Apr - 12:16:18 10° WNW 12:21:30 20° NNW 12:26:32 10° NNE daylight
19 Apr - 19:59:35 10° NNW 20:05:13 31° NNE 20:10:52 10° E visible
19 Apr - 21:52:50 10° WNW 21:59:16 70° SSW 22:05:55 10° SE visible
19 Apr - 23:48:59 10° WSW 23:53:40 20° SSW 23:58:31 10° SSE night (unlit)
20 Apr - 05:41:02 10° S 05:42:51 11° SSE 05:44:42 10° SSE daylight
20 Apr - 07:31:28 10° SSW 07:38:17 32° SSE 07:45:06 10° E daylight
20 Apr - 09:24:58 10° WSW 09:32:53 84° NNW 09:40:35 10° ENE daylight
20 Apr - 11:21:09 10° W 11:27:26 27° NNW 11:33:31 10° NNE daylight
20 Apr - 19:06:27 10° NNW 19:11:25 23° NNE 19:16:19 10° ENE visible
20 Apr - 20:59:07 10° WNW 21:05:35 84° NNE 21:12:10 10° ESE visible
20 Apr - 22:54:23 10° W 22:59:45 27° SSW 23:05:19 10° SSE night (unlit)
21 Apr - 06:38:10 10° SSW 06:44:11 24° SSE 06:50:16 10° ESE daylight
21 Apr - 08:31:03 10° SW 08:38:54 74° SSE 08:46:41 10° ENE daylight
21 Apr - 10:26:22 10° W 10:33:25 36° NNW 10:40:16 10° NE daylight
21 Apr - 12:26:10 10° NW 12:28:34 12° NNW 12:30:57 10° N daylight
21 Apr - 18:13:30 10° NNW 18:17:31 17° NNE 18:21:27 10° ENE visible
21 Apr - 20:05:32 10° NW 20:11:55 59° NNE 20:18:17 10° ESE visible
21 Apr - 22:00:04 10° W 22:05:57 37° SSW 22:11:59 10° SE visible
21 Apr - 23:58:59 10° SW 00:00:48 11° SSW 00:02:39 10° S night (unlit)
22 Apr - 05:45:07 10° SSW 05:50:02 18° SSE 05:55:02 10° ESE daylight
22 Apr - 07:37:20 10° SW 07:44:56 55° SSE 07:52:34 10° ENE daylight
22 Apr - 09:31:53 10° WSW 09:39:25 49° NNW 09:46:49 10° NE daylight
22 Apr - 11:29:55 10° WNW 11:34:21 16° NNW 11:38:42 10° NNE daylight
22 Apr - 17:20:57 10° N 17:23:30 12° NNE 17:26:00 10° NE daylight
22 Apr - 19:12:04 10° NW 19:18:12 41° NNE 19:24:14 10° E visible
22 Apr - 21:05:58 10° WNW 21:12:13 52° SSW 21:18:33 10° SE visible
22 Apr - 23:03:11 10° WSW 23:06:44 15° SSW 23:10:21 10° S night (unlit)
23 Apr - 04:52:30 10° S 04:55:50 13° SSE 04:59:13 10° SE visible
23 Apr - 06:43:48 10° SW 06:50:56 40° SSE 06:58:11 10° E daylight
23 Apr - 08:37:40 10° WSW 08:45:26 66° NNW 08:53:11 10° NE daylight
23 Apr - 10:34:29 10° WNW 10:40:11 22° NNW 10:45:48 10° NNE daylight
23 Apr - 18:18:43 10° NNW 18:24:26 30° NNE 18:29:59 10° E visible
23 Apr - 20:12:02 10° WNW 20:18:32 74° SSW 20:25:00 10° SE visible
23 Apr - 22:08:10 10° WSW 22:12:47 20° SSW 22:17:29 10° SSE night (unlit)
24 Apr - 05:50:28 10° SSW 05:56:54 30° SSE 06:03:32 10° E daylight
24 Apr - 07:43:40 10° WSW 07:51:27 88° NNW 07:59:21 10° ENE daylight
24 Apr - 09:39:30 10° W 09:46:05 29° NNW 09:52:36 10° NNE daylight
24 Apr - 17:25:29 10° NNW 17:30:34 22° NNE 17:35:29 10° ENE daylight
24 Apr - 19:18:15 10° NW 19:24:52 79° NNE 19:31:19 10° ESE visible
24 Apr - 21:13:32 10° W 21:18:57 28° SSW 21:24:24 10° SSE visible
25 Apr - 04:57:21 10° SSW 05:02:51 22° SSE 05:08:32 10° ESE visible
25 Apr - 06:49:54 10° SW 06:57:30 70° SSE 07:05:19 10° ENE daylight
25 Apr - 08:44:53 10° W 08:52:01 39° NNW 08:59:11 10° NE daylight
25 Apr - 10:43:53 10° NW 10:47:15 13° NNW 10:50:35 10° N daylight
25 Apr - 16:32:24 10° NNW 16:36:35 17° NNE 16:40:39 10° ENE daylight
25 Apr - 18:24:35 10° NW 18:31:09 56° NNE 18:37:29 10° ESE visible
25 Apr - 20:19:10 10° W 20:25:11 39° SSW 20:31:10 10° SE visible
25 Apr - 22:18:06 10° SW 22:19:52 11° SSW 22:21:39 10° S night (unlit)
